CW4549 Weather Reports


Display with metric or nautical units.
time (UTC)temp
F
wind
direction
speed
MPH
gust
MPH
rain 1hr
in
rain 24hr
in
rain mn
in
humidity
%
barometer
mb
20260504193036 74 158 1.0 7.0 0.00 0.00 0.00 53 1002.1
20260504191515 73 135 1.0 12.0 0.00 0.00 0.00 56 1002.5
20260504190016 72 158 1.0 7.0 0.00 0.00 0.00 58 1002.5
20260504184516 71 0.0 8.0 0.00 0.00 0.00 60 1002.9
20260504183016 70 158 1.0 12.0 0.00 0.00 0.00 58 1002.8
20260504181516 70 158 2.0 11.0 0.00 0.00 0.00 58 1002.7
20260504180015 69 158 1.0 11.0 0.00 0.00 0.00 59 1002.5
20260504174516 70 158 3.0 12.0 0.00 0.00 0.00 56 1002.4
20260504173016 71 158 3.0 13.0 0.00 0.00 0.00 54 1002.2
20260504171519 71 158 2.0 12.0 0.00 0.00 0.00 57 1002.3
20260504081536 55 0.0 5.0 0.00 0.00 0.00 60 1004.1
20260504044516 55 0.0 2.0 0.00 0.00 0.00 58 1006.0
20260504043018 54 0.0 6.0 0.00 0.00 0.00 58 1006.1
20260504041516 54 0.0 2.0 0.00 0.00 0.00 60 1006.3
20260504040017 53 0.0 2.0 0.00 0.00 0.00 62 1006.4
20260504034517 53 0.0 1.0 0.00 0.00 0.00 63 1006.7
20260504033037 53 0.0 0.0 0.00 0.00 0.00 65 1006.7
20260504031517 53 0.0 1.0 0.00 0.00 0.00 64 1006.7
20260504030017 53 0.0 1.0 0.00 0.00 0.00 65 1006.8
20260504024516 54 0.0 0.0 0.00 0.00 0.00 65 1006.9
20260504023015 54 0.0 0.0 0.00 0.00 0.00 62 1006.8
20260504021515 55 0.0 0.0 0.00 0.00 0.00 59 1006.8
20260504020015 56 0.0 2.0 0.00 0.00 0.00 56 1006.7
20260504014515 57 0.0 3.0 0.00 0.00 0.00 55 1006.7
20260504013015 57 0.0 3.0 0.00 0.00 0.00 53 1006.5
20260504011515 57 0.0 6.0 0.00 0.00 0.00 53 1006.3
20260504010022 58 180 1.0 6.0 0.00 0.00 0.00 50 1006.7
20260504004517 59 203 1.0 5.0 0.00 0.00 0.00 43 1006.8
20260504003015 60 158 1.0 10.0 0.00 0.00 0.00 42 1006.6
20260504001537 60 180 1.0 8.0 0.00 0.00 0.00 40 1006.8
20260504000017 60 158 1.0 5.0 0.00 0.00 0.00 39 1006.8
20260503234515 60 158 1.0 8.0 0.00 0.00 0.00 38 1006.6
20260503233015 61 158 2.0 10.0 0.00 0.00 0.00 36 1006.5
20260503231515 61 158 1.0 7.0 0.00 0.00 0.00 36 1006.7
20260503230036 61 180 1.0 5.0 0.00 0.00 0.00 36 1007.2
20260503224537 61 180 2.0 13.0 0.00 0.00 0.00 36 1007.5
20260503223016 62 158 1.0 8.0 0.00 0.00 0.00 34 1007.8
20260503221516 62 158 2.0 10.0 0.00 0.00 0.00 35 1007.8
20260503220016 62 158 2.0 12.0 0.00 0.00 0.00 33 1008.2
20260503214517 62 225 1.0 10.0 0.00 0.00 0.00 35 1008.5
20260503213037 62 180 1.0 7.0 0.00 0.00 0.00 38 1008.3
20260503211516 63 180 2.0 7.0 0.00 0.00 0.00 37 1008.5
20260503210016 62 180 1.0 8.0 0.00 0.00 0.00 36 1008.9
20260503204516 61 158 1.0 13.0 0.00 0.00 0.00 36 1009.0
20260503203016 62 158 3.0 15.0 0.00 0.00 0.00 34 1009.1
20260503201516 63 158 1.0 10.0 0.00 0.00 0.00 31 1009.1
20260503200016 62 158 2.0 10.0 0.00 0.00 0.00 37 1009.2
20260503194516 62 225 1.0 7.0 0.00 0.00 0.00 37 1009.5